Location: Boiro
(42.6475°N, 8.8834°W)
Time: 02:54:23
(UTC+01:00)

Vanguard 1 Rocket - Pass Details

Date: 09 December 2021
Orbit: 651 x 4225 km, 34.3° (Epoch: 26 January)

Event Time Altitude Azimuth Distance (km) Brightness Sun altitude
Exits shadow 03:49:01 40° 116° (ESE) 3,115 10.0 -54.7°
Drops below altitude 10° 04:00:33 10° 94° (E) 6,152 12.0 -52.7°
Sets 04:06:34 0° 91° (E) 7,668 12.7 -51.7°
